Location: Rowland
(34.5359°N, 79.2929°W)
Time: 21:31:06
(UTC+00:00)

A-11 Canister half - Pass Details

Date: 04 October 2022
Orbit: 1516 x 1684 km, 47.2° (Epoch: 28 November)

Event Time Altitude Azimuth Distance (km) Brightness Sun altitude
Rises 03:09:47 0° 268° (W) 4,818 12.0 -49.5°
Reaches altitude 10° 03:13:11 10° 275° (W) 3,808 11.4 -50.0°
Enters shadow 03:18:52 33° 302° (WNW) 2,402 10.2 -50.9°
